Miscellaneous Local Product
Issued by NWS North Platte, NE

Home | Current Version | Previous Version | Text Only | Print | Product List | Glossary On
Versions: 1 2 3 4 5 6 7 8 9 10 11 12 13 14 15 16 17 18 19 20 21 22 23 24 25 26 27 28 29 30 31 32 33 34 35 36 37 38 39 40 41 42 43 44 45 46 47 48 49 50
000
AXUS43 KLBF 291810
MISLBF


WESTERN AND NORTH CENTRAL NEBRASKA HOURLY WEATHER ROUNDUP
NATIONAL WEATHER SERVICE NORTH PLATTE NE
100 PM CDT TUE JUL 29 2014

***STATIONS NOT REPORTING VARIABLES SUCH AS SKY/WEATHER OR
PRESSURE ARE PROVIDED BY THE NEBRASKA DEPARTMENT OF
ROADS...RAWS...AND APRS NETWORKS...AND ARE NOT UNDER
NATIONAL WEATHER SERVICE QUALITY CONTROL***

...OBSERVATIONS IN AND NEAR THE EASTERN PANHANDLE OF NEBRASKA...

CITY           SKY/WX    TMP DP  RH WIND       PRES   REMARKS
PINE RIDGE     CLOUDY    69  59  70 NE3       30.26R
CHADRON        PTSUNNY   76  57  51 N13       30.24R
ALLIANCE       MOSUNNY   78  55  44 SE14G26   30.23F
SIDNEY         SUNNY     80  58  46 SE10      30.25F
WHITECLAY        N/A     70  57  64 NE3         N/A
RUSHVILLE        N/A     75  54  46 SE15        N/A
GORDON           N/A     75  61  61 E10         N/A
CRESCENT LAKE    N/A     78  60  54 SE6G14      N/A
LISCO            N/A     81  59  47 E7          N/A
BIG SPRINGS      N/A     76  62  62 SE7         N/A
$$

...OBSERVATIONS IN NORTH CENTRAL NEBRASKA...

CITY           SKY/WX    TMP DP  RH WIND       PRES   REMARKS
VALENTINE      CLOUDY    76  52  43 VRB3      30.23F
THEDFORD       CLOUDY    75  59  57 SE8       30.24F
AINSWORTH      PTSUNNY   74  53  47 E3        30.23F
O`NEILL        PTSUNNY   76  51  41 W6        30.23F
ORD            PTSUNNY   75  58  55 VRB5      30.22F
BROKEN BOW     CLOUDY    74  59  59 SE8       30.23F
BROWNLEE         N/A     77  52  41 SE5         N/A
SPRINGVIEW       N/A     78  58  49 CALM        N/A
DUNNING          N/A     78  60  54 CALM        N/A
ROSE             N/A     80  60  49 S3          N/A
NEWPORT          N/A     75  54  47 CALM        N/A
SARGENT          N/A     76  58  53 CALM        N/A
COMSTOCK         N/A     79  62  56 S5          N/A
CHAMBERS         N/A     82  55  39 N3          N/A
EWING            N/A     74  56  52 CALM        N/A
$$

...OBSERVATIONS IN SOUTHWEST NEBRASKA AND FAR NORTHEAST COLORADO...

CITY           SKY/WX    TMP DP  RH WIND       PRES   REMARKS
WRAY             N/A     85  60  43 E13G18    30.19F
HOLYOKE        FAIR      79  61  53 SE10G20   30.21F
IMPERIAL       PTSUNNY   76  60  57 E8        30.22F
OGALLALA       SUNNY     76  59  55 E7        30.21F
NORTH PLATTE   MOSUNNY   75  57  53 SE8       30.22F
MCCOOK         MOSUNNY   81  59  47 E15       30.19F
LEXINGTON      MOSUNNY   76  57  52 SE10      30.22F
PAXTON           N/A     73  62  68 SE8         N/A
SUTHERLAND       N/A     79  65  62 SE6         N/A
BRADY            N/A     73  58  59 N3          N/A
CALLAWAY         N/A     68  63  84 S7          N/A
$$

...SOME WEATHER OBSERVATIONS FROM AROUND THE REGION...

CITY           SKY/WX    TMP DP  RH WIND       PRES   REMARKS
DENVER         PTSUNNY   79  56  45 SE7       30.23F
LARAMIE        TSTM      55  52  89 NE9       30.35F
CHEYENNE       PTSUNNY   67  57  70 N12G22    30.31F
SCOTTSBLUFF    MOSUNNY   72  59  63 VRB3      30.25F
RAPID CITY     CLOUDY    66  56  70 S3        30.27S
PIERRE         PTSUNNY   78  50  37 VRB3      30.19F
WINNER         FAIR      77  50  38 VRB3      30.22F
SIOUX FALLS    PTSUNNY   73  53  49 NW8       30.21F
OMAHA          PTSUNNY   77  55  46 NW8       30.20F
GRAND ISLAND   PTSUNNY   74  53  48 E7        30.23F
KANSAS CITY    PTSUNNY   80  60  50 NW6       30.18F
WICHITA        MOSUNNY   84  60  44 SE7       30.16F
HAYS           SUNNY     82  57  42 S3        30.18F
LIBERAL        CLOUDY    64  59  82 S15       30.22F
GOODLAND       MOSUNNY   82  63  52 SE9G21    30.20F
$$



USA.gov is the U.S. government's official web portal to all federal, state and local government web resources and services.